Reflectivity
-20 -20 -20 -20 -20 -20 -20 -20 -20 -20 -20 -20 -20 -20 -20 -20 -20 -20 -20 -3 17 18 17 16 4 -7 -20 -20 -20 10 2 -20 -6 14 28 30 24 15 -2 -20 -20 -20 -20
-18 -20 -20 -20 -20 -20 -20 -20 -20 -20 -20 -20 -20 -20 -20 -20 -20 -20 -20 -16 13 19 19 19 8 10 -20 -14 21 10 9 -20 -18 6 23 27 27 -6 -2 11 -16 -20 -20
9 16 5 -20 -20 -20 -20 -20 -20 -20 -20 -20 -20 -20 -20 -20 -20 -19 -13 -14 13 16 6 18 16 13 17 10 16 13 9 -20 -20 -20 -9 6 9 14 6 -10 6 -20 -20
16 19 5 -19 -20 -20 -20 -4 -14 -20 -20 -20 -20 -20 -20 -20 -20 -20 -20 17 10 16 18 11 19 13 11 20 8 0 -9 -15 -20 11 -20 -20 -20 -1 16 -20 -18 -20 -20
23 5 -5 -20 -20 -20 2 10 -20 -20 -20 -20 -20 -20 -20 -20 -20 -20 9 -15 13 15 19 19 25 19 15 20 10 6 14 9 11 -20 -20 -20 -18 -12 -9 -9 -20 -18 -2
12 1 -20 -20 -20 -20 13 8 -20 -20 -20 -20 -20 -20 -20 -20 -20 -20 4 -16 10 12 11 15 20 20 8 7 5 9 4 -20 22 4 13 -12 -20 -20 -20 -3 -19 -20 -20
-18 -20 -20 -20 -20 -20 -18 -13 -17 -6 -18 -20 -20 -20 -20 -0 7 -16 -18 -13 2 1 12 13 2 9 -5 -9 -7 -2 -8 -8 11 1 15 22 16 10 1 12 15 -20 -20
-20 -20 -20 -20 -20 -19 -20 -20 -20 -20 -7 6 -20 -20 -20 -20 2 3 7 3 -20 -15 3 -2 19 2 -20 -8 -18 -3 12 -2 10 -9 29 35 24 12 8 -12 -9 -20 -20
19 9 -20 -20 -20 -20 -20 -20 -20 -20 -20 -2 -20 -13 0 4 8 -3 20 14 9 4 -13 10 13 9 8 -11 -14 -7 13 25 13 8 21 37 26 24 13 28 -17 -20 -20
3 -5 -20 -20 -20 -20 -20 -20 -20 -20 -20 -20 -20 -20 -17 9 10 -9 10 21 4 13 -20 8 -9 9 14 -8 -1 1 3 3 16 24 37 37 25 28 19 17 -4 -20 -20
9 7 -4 -20 -20 -20 -20 -20 -20 -20 -20 -20 -20 -20 -20 6 13 -20 -8 14 16 12 6 5 -5 -20 -20 1 -20 -8 -20 -9 -6 20 27 29 29 31 32 26 23 -20 -20
5 13 -18 -20 -20 -20 -20 -20 -20 -20 -20 -20 -20 -20 -20 -20 8 -20 -4 24 14 18 18 26 -20 -20 -9 -19 -20 -20 -19 -19 4 9 27 27 35 32 35 30 22 7 8
29 21 8 -10 -20 -20 -20 -20 -4 -20 -20 -20 -20 -20 -20 -20 -15 8 -11 4 24 25 10 18 23 -20 -20 -20 -20 -20 -17 -20 -16 -11 18 32 30 34 33 32 31 16 8
10 4 1 -17 -20 -20 -20 -20 -14 -20 -20 -20 -20 -20 -20 -20 -20 -6 -19 -9 27 23 7 7 26 -20 -20 -20 -20 -20 -20 -20 -8 -12 -19 9 32 31 34 30 34 23 11
-3 -20 -20 -20 -20 -20 -20 -20 -6 -20 -20 -20 -20 -20 -20 -20 -20 -20 6 2 2 30 27 12 23 -6 -20 -20 -20 -20 -19 -20 -20 -6 2 -20 12 26 34 35 33 33 20
-20 -20 -20 -20 -20 -20 -20 -20 -20 -20 -20 -20 -20 -20 -20 -20 -20 -20 -3 10 10 31 25 18 13 8 -19 14 -18 -7 -20 5 -20 -11 17 -3 13 17 34 34 34 33 26
-17 -20 -20 -20 -20 -20 -20 -20 -20 -20 -20 -20 -20 -20 -20 -20 -20 -20 4 9 20 19 21 1 11 3 11 14 17 10 -9 -20 -20 -13 -2 11 32 26 26 32 31 29 30
-20 -20 -20 -20 -20 -20 -20 -20 -20 -20 -20 -20 -20 -20 -20 -20 -20 -20 22 15 17 26 19 14 4 5 6 7 2 14 2 -16 3 14 21 27 34 28 25 17 25 28 28
-20 -20 -20 -20 -20 -20 -20 -20 -20 -20 -20 -20 -20 -20 -20 -20 -20 -20 13 19 27 30 5 11 -14 -20 -11 13 23 22 13 21 6 20 6 24 28 33 32 34 35 33 33
-20 -20 -20 -20 -20 -20 -20 -20 -20 -20 -20 -20 -20 -20 -20 -20 -20 -20 -19 -7 26 29 -11 18 -12 17 5 14 10 7 -20 -19 7 -19 -9 19 31 36 32 34 32 30 33
-20 -20 -20 -20 -20 -20 -20 -20 -20 -20 -20 -20 -20 -20 -20 -20 -20 -20 -20 -20 19 32 6 15 -8 -7 6 7 -2 8 -14 12 -13 -20 -20 -9 28 33 37 36 34 34 36
-20 -20 -20 -20 -20 -20 -20 -20 -20 -20 -20 -20 -20 -16 -20 -20 -20 -20 -20 -20 17 34 26 3 -7 -8 12 16 -0 8 17 16 -5 -20 -20 3 5 16 28 31 30 26 29
-20 -20 -20 -20 -20 -20 -20 -20 -20 -20 -20 -20 -20 -20 -20 -20 -20 -20 -20 3 26 37 40 -2 -9 4 -10 12 12 6 13 13 7 -20 7 12 18 16 19 21 20 18 8
-20 -20 -20 -20 -20 -20 -20 -20 -20 -20 -20 -20 -20 -8 -5 -14 -20 -20 -20 -3 20 26 40 7 6 8 -14 7 10 -4 10 17 9 3 -1 4 7 16 -3 2 7 -5 3
-20 -20 -20 -20 -20 -20 -20 -20 -20 -20 -20 -20 -20 -3 -10 10 -10 -20 -0 8 29 36 35 27 11 20 -0 5 11 4 -16 -17 -1 -8 -6 -5 -17 -14 -18 -14 -5 7 15
-20 -20 -20 -20 -20 -20 -13 -0 6 -20 -20 -20 -20 -4 -10 -20 -20 -20 -13 15 19 29 29 36 27 35 29 20 10 11 17 16 16 10 -7 -9 -17 -16 3 10 11 1 3
Wind_Speed
8 9 9 9 10 9 8 6 6 5 3 3 5 4 7 6 6 7 7 7 9 10 10 8 11 10 11 12 12 8 12 6 7 4 3 2 5 9 10 9 8 9 10
6 8 8 8 8 9 9 8 6 4 4 4 4 4 6 6 9 7 7 6 9 10 10 11 10 12 9 11 12 12 7 4 9 7 8 6 3 2 9 9 10 11 9
10 8 12 9 9 9 9 7 7 7 7 4 2 3 4 3 3 7 7 9 7 10 11 13 12 12 11 11 13 13 14 9 7 7 7 5 6 5 2 9 9 11 9
5 11 10 7 9 8 9 8 7 7 7 9 4 6 6 5 4 6 8 6 7 9 10 12 13 12 9 11 12 11 11 11 11 6 9 3 7 13 6 2 5 10 11
11 7 9 12 8 8 7 7 5 5 3 4 6 1 3 3 4 5 8 9 6 10 11 10 11 11 9 11 13 13 13 11 12 12 11 9 6 12 9 10 6 3 8
8 12 10 13 8 8 7 8 8 6 7 2 4 2 5 5 6 5 7 6 6 7 10 10 10 10 11 11 11 12 14 12 10 11 12 13 12 14 10 9 11 10 5
14 8 10 11 8 9 8 8 7 8 5 2 3 4 5 6 8 8 8 8 7 7 10 11 11 10 11 11 12 13 14 15 13 14 12 12 8 10 10 10 9 8 3
10 10 9 9 9 11 9 7 6 6 9 7 6 5 5 3 4 5 7 8 8 9 9 11 11 13 13 12 11 10 11 14 14 18 13 11 9 11 11 10 12 8 3
7 9 9 9 11 10 8 7 7 7 6 5 8 7 6 5 6 5 5 7 8 7 9 10 11 11 13 13 13 10 11 11 14 17 19 15 13 8 10 10 12 13 9
6 6 8 8 8 9 8 9 8 7 7 8 7 8 10 8 5 4 6 8 8 9 10 9 9 7 8 9 11 10 10 12 9 8 15 14 13 9 6 10 12 11 12
4 8 6 8 9 7 8 7 8 8 7 6 7 9 11 12 6 5 5 7 9 11 12 10 10 9 9 11 9 10 10 11 12 14 15 16 16 14 4 7 10 10 9
9 7 5 2 7 8 9 8 7 7 6 5 5 8 10 12 10 6 7 6 9 10 11 12 11 11 10 10 10 10 10 11 12 12 10 16 11 15 13 5 13 13 9
6 3 6 13 13 8 8 8 6 6 6 6 7 9 10 11 13 10 7 8 7 11 12 11 12 11 11 10 10 10 10 11 11 13 13 12 16 17 11 4 7 11 10
5 6 14 11 9 8 10 10 10 8 7 6 6 9 10 12 12 14 9 8 10 12 12 12 12 11 11 11 11 11 11 11 8 13 13 16 17 18 14 8 6 9 13
15 13 11 9 10 11 11 10 9 10 10 10 11 11 12 12 14 13 12 9 9 9 12 12 11 11 11 10 12 11 11 11 11 9 14 13 14 17 13 10 10 11 10
18 17 15 15 13 13 11 11 12 12 12 10 11 12 12 13 13 14 16 10 11 9 7 10 10 11 8 9 14 12 10 10 10 9 6 10 17 16 14 12 13 14 13
17 17 16 15 14 13 13 12 12 12 11 11 12 12 13 15 14 16 16 11 12 8 7 7 7 6 4 1 10 12 6 6 5 7 6 3 3 14 13 20 20 17 13
15 13 11 10 10 11 12 12 12 11 12 11 11 12 13 15 15 15 14 15 7 10 8 7 6 7 4 6 11 14 8 8 7 7 5 4 7 10 18 15 14 13 12
14 13 10 6 6 8 9 11 12 12 11 12 13 14 15 16 16 15 15 14 4 8 6 7 7 8 7 10 10 14 10 10 10 9 8 7 5 14 27 20 19 18 16
10 12 13 9 8 7 8 9 11 11 12 14 14 14 14 15 16 15 15 12 5 9 9 10 8 11 9 9 11 11 9 11 9 11 11 14 13 12 17 21 19 19 13
14 16 13 9 8 10 9 8 9 11 14 14 14 14 14 15 15 15 13 3 2 10 12 13 9 10 8 9 14 13 8 10 11 10 9 9 18 19 18 21 15 18 17
12 13 10 9 8 9 9 9 11 13 13 14 14 13 13 12 11 14 3 4 7 5 12 15 10 8 8 12 16 18 17 17 13 12 10 13 26 28 30 24 33 30 19
10 10 10 10 11 12 12 13 13 13 14 14 13 13 12 10 10 8 3 2 1 4 12 11 11 10 8 10 23 25 25 23 16 12 22 30 32 34 26 31 29 19 12
11 11 11 12 12 13 13 12 13 13 13 13 11 9 8 9 10 7 3 3 1 3 5 12 12 11 10 10 11 13 17 28 22 24 15 15 18 20 19 16 14 10 10
12 12 12 13 14 13 12 13 14 13 13 11 9 8 6 7 7 9 6 2 4 5 1 2 12 15 13 11 17 18 15 13 16 19 13 12 12 13 12 12 12 11 11
12 10 11 11 12 12 12 11 12 12 11 9 7 7 5 5 5 5 7 19 18 23 20 11 7 9 21 28 28 29 32 31 25 14 13 12 11 12 12 12 11 10 11
Wind_Direction
193 182 191 143 127 114 107 118 130 164 140 137 160 176 199 196 204 210 205 183 170 173 163 157 155 160 168 169 168 166 177 175 169 141 153 258 248 154 160 163 164 173 173
251 181 151 129 111 110 94 65 37 7 172 167 169 162 186 201 201 197 192 186 178 179 166 166 166 169 168 167 169 171 171 172 173 180 153 187 233 191 164 168 169 176 174
283 111 116 125 114 100 91 70 34 2 341 287 193 95 72 46 148 189 191 211 183 189 177 174 170 168 174 175 179 178 176 180 183 182 170 146 185 142 164 173 176 173 173
44 130 129 104 106 103 82 66 34 348 349 307 193 165 174 161 201 177 173 206 182 176 183 181 173 170 178 181 182 183 183 177 185 192 223 225 145 164 171 169 163 174 176
125 81 93 118 109 97 97 75 25 301 312 2 44 340 150 144 145 145 171 187 166 180 169 174 172 180 183 182 183 186 188 192 181 194 194 211 176 170 176 174 165 158 179
99 137 124 116 110 93 76 64 40 343 287 24 357 31 232 169 156 166 190 200 184 184 177 177 176 183 181 181 184 184 196 195 200 200 197 198 184 181 172 168 183 184 193
135 125 111 115 116 109 87 70 31 6 344 31 313 298 293 206 189 187 197 193 191 188 185 184 187 185 186 179 195 199 201 202 204 198 198 200 194 185 175 164 179 174 159
118 133 114 102 99 90 90 85 56 46 24 340 300 296 281 247 240 218 204 205 197 190 182 190 192 186 191 191 193 200 203 206 206 204 205 192 191 189 179 173 166 155 142
139 133 126 115 95 102 119 116 76 46 25 7 1 321 297 262 259 251 197 208 189 170 171 170 178 177 185 191 193 199 207 210 214 208 195 192 192 189 186 179 180 171 164
127 109 101 107 110 123 119 106 97 77 36 6 354 340 321 290 251 256 239 205 184 181 171 166 169 167 172 185 193 205 214 217 218 209 199 192 189 187 200 182 181 184 183
98 70 94 118 128 134 120 107 85 71 35 11 345 340 329 311 259 249 252 223 185 180 170 186 177 176 185 201 194 207 210 213 215 205 201 192 183 187 170 205 185 178 177
62 38 65 183 176 94 91 90 79 67 35 12 352 337 324 320 291 249 246 253 198 183 181 180 178 177 192 195 198 204 207 211 205 202 202 192 179 190 205 183 199 176 143
97 56 29 69 75 77 76 75 69 56 31 11 350 338 330 325 317 278 251 231 217 187 176 182 185 177 191 195 201 206 204 208 203 201 196 190 189 187 198 158 195 161 135
35 61 80 72 67 63 58 50 48 32 9 354 349 336 327 326 314 303 266 245 225 183 180 179 192 182 187 202 203 203 205 207 206 203 199 201 199 193 190 155 152 143 130
26 66 61 59 48 46 45 41 29 12 357 355 347 333 324 320 317 310 279 246 222 191 180 180 192 189 188 195 199 203 204 202 205 201 207 202 194 188 171 163 143 144 133
41 39 31 34 39 34 28 21 10 358 352 348 338 330 321 323 322 312 306 253 217 200 174 181 188 194 195 192 189 191 201 203 202 199 202 209 190 182 158 147 156 154 139
29 29 18 21 26 25 18 9 1 345 340 341 334 337 332 320 322 318 318 258 215 170 147 133 131 122 120 259 204 199 197 195 202 204 151 95 125 126 118 96 86 69 72
14 20 13 13 22 15 10 357 353 345 338 331 339 333 327 318 315 315 305 300 180 157 141 125 119 113 73 103 117 108 96 83 66 60 60 153 130 137 121 109 88 76 61
3 359 355 6 22 24 9 356 348 343 333 335 330 328 322 313 308 306 303 302 180 147 124 118 116 111 97 104 112 108 97 87 73 67 69 73 97 131 125 117 104 96 85
353 358 356 358 20 11 19 0 344 329 336 327 323 323 315 304 301 298 294 286 240 137 118 103 101 108 109 104 107 109 115 103 95 74 66 83 95 93 122 117 120 106 111
9 8 360 358 8 10 357 347 334 336 326 319 317 321 313 304 296 291 278 210 155 133 117 108 99 98 104 108 110 114 116 121 107 95 82 74 90 97 96 100 105 110 112
11 5 353 352 354 356 349 349 345 333 325 319 319 323 315 308 305 298 244 152 135 194 127 117 107 93 93 104 108 108 108 114 108 107 100 98 98 96 97 97 107 106 102
6 354 351 352 354 354 357 350 340 334 326 324 324 329 321 325 320 312 46 48 178 227 135 127 123 116 109 103 109 108 108 107 105 106 111 109 104 102 96 101 104 103 103
357 355 353 352 351 355 352 346 338 332 330 328 330 328 328 346 352 337 347 93 121 132 230 136 131 128 124 121 120 113 109 107 107 110 106 106 101 95 101 100 92 94 98
357 1 357 355 350 347 346 344 337 337 337 330 336 336 343 356 359 19 353 37 68 90 228 189 145 146 142 144 136 132 127 124 121 119 113 111 109 105 101 96 95 95 97
350 7 356 352 347 344 341 347 343 341 336 337 351 350 355 6 9 14 35 52 76 81 71 60 102 113 120 130 126 123 123 124 126 115 113 110 109 108 111 108 103 100 106